Tirana, Albania

7:32 PM CET on November 22, 2017 (GMT +0100)
Rinas

Weather History for LATI - January, 2013

Change the Weather History Date:

Tuesday, January 1, 2013

  Actual Average Record
Temperature  
Mean Temperature 44 °F -  
Max Temperature 59 °F 52 °F 59 °F (2003)
Min Temperature 30 °F 35 °F 16 °F (2016)
Degree Days  
Heating Degree Days 20    
Moisture  
Dew Point 36 °F    
Average Humidity 81    
Maximum Humidity 100    
Minimum Humidity 48    
Precipitation  
Precipitation 0.00 in -13.12 in - ()
Sea Level Pressure  
Sea Level Pressure 30.12 in    
Wind  
Wind Speed 2 mph ()    
Max Wind Speed 7 mph    
Max Gust Speed -    
Visibility 2.9 miles    
Events Fog    
Averages and records for this station are not official NWS values.
T = Trace of Precipitation, MM = Missing Value Source: Averaged Metar Reports

Daily Weather History Graph

Daily Weather History Graph

Search for Another Location

Airport or City:

Trip Planner

Search our weather history database for the weather conditions in past years. The results will help you decide how hot, cold, wet, or windy it might be!

Date:

Astronomy

Jan. 01, 2013 Rise Set
Actual Time 7:06 AM CET 4:22 PM CET
Civil Twilight 6:35 AM CET 4:53 PM CET
Nautical Twilight 6:00 AM CET 5:28 PM CET
Astronomical Twilight 5:27 AM CET 6:01 PM CET
Moon 8:37 PM CET (1/1) 9:07 AM CET (1/1)
Length of Visible Light 10h 17m
Length of Day
9h 15m
Waning Gibbous, 85% of the Moon is Illuminated
Jan 1
Waning Gibbous
Jan 5
Last Quarter
Jan 11
New
Jan 19
First Quarter
Jan 27
Full

Hourly Weather History & Observations

Time (CET) Temp. Windchill Dew Point Humidity Pressure Visibility Wind Dir Wind Speed Gust Speed Precip Events Conditions
12:20 AM 33.8 °F - 32.0 °F 93% 30.12 in 1.0 mi SE 2.3 mph - N/A   Smoke
12:50 AM 33.8 °F - 32.0 °F 93% 30.12 in 1.4 mi Variable 2.3 mph - N/A   Smoke
1:20 AM 33.8 °F - 32.0 °F 93% 30.12 in 1.0 mi SSE 2.3 mph - N/A   Mist
1:50 AM 30.2 °F 26.7 °F 28.4 °F 93% 30.12 in 1.2 mi SE 3.5 mph - N/A   Mist
2:20 AM 32.0 °F 27.5 °F 30.2 °F 93% 30.12 in 1.2 mi South 4.6 mph - N/A   Mist
2:50 AM 33.8 °F - 32.0 °F 93% 30.12 in 1.0 mi Calm Calm - N/A   Mist
3:20 AM 32.0 °F 28.7 °F 32.0 °F 100% 30.12 in 0.9 mi SE 3.5 mph - N/A   Mist
3:50 AM 32.0 °F 28.7 °F 32.0 °F 100% 30.09 in 0.2 mi SSE 3.5 mph - N/A Fog Patches of Fog
4:00 AM 32 °F - 31 °F 94% 30.13 in 1 mi East 2.2 mph - -  
4:20 AM 32.0 °F 28.7 °F 30.2 °F 93% 30.09 in 0.8 mi East 3.5 mph - N/A   Mist
4:50 AM 32.0 °F 28.7 °F 32.0 °F 100% 30.09 in 2.5 mi SSE 3.5 mph - N/A   Mist
5:20 AM 32.0 °F 27.5 °F 30.2 °F 93% 30.09 in 0.9 mi South 4.6 mph - N/A   Mist
5:50 AM 32.0 °F 28.7 °F 32.0 °F 100% 30.12 in 0.9 mi South 3.5 mph - N/A   Mist
6:20 AM 32.0 °F 27.5 °F 30.2 °F 93% 30.12 in 0.8 mi SE 4.6 mph - N/A   Mist
6:50 AM 30.2 °F 25.4 °F 30.2 °F 100% 30.12 in 1.0 mi SSE 4.6 mph - N/A   Mist
7:20 AM 30.2 °F 26.7 °F 30.2 °F 100% 30.12 in 1.4 mi SSE 3.5 mph - N/A   Mist
7:50 AM 32.0 °F 28.7 °F 30.2 °F 93% 30.12 in 2.2 mi South 3.5 mph - N/A   Mist
8:20 AM 35.6 °F 32.8 °F 33.8 °F 93% 30.12 in 2.8 mi SE 3.5 mph - N/A   Mist
8:50 AM 39.2 °F - 35.6 °F 87% 30.12 in 3.1 mi Calm Calm - N/A   Mist
9:20 AM 42.8 °F - 37.4 °F 81% 30.12 in 4.3 mi Calm Calm - N/A   Unknown
9:50 AM 44.6 °F - 39.2 °F 81% 30.12 in - Calm Calm - N/A   Clear
10:00 AM 47 °F - 39 °F 65% 30.15 in 9 mi South 2.2 mph - -  
10:20 AM 48.2 °F - 39.2 °F 71% 30.12 in - Calm Calm - N/A   Clear
10:50 AM 53.6 °F - 39.2 °F 58% 30.12 in - Calm Calm - N/A   Clear
11:20 AM 55.4 °F - 39.2 °F 54% 30.12 in - Calm Calm - N/A   Clear
11:50 AM 55.4 °F - 37.4 °F 51% 30.09 in - Calm Calm - N/A   Clear
12:20 PM 57.2 °F - 39.2 °F 51% 30.09 in - Calm Calm - N/A   Clear
12:50 PM 57.2 °F - 37.4 °F 48% 30.09 in - Calm Calm - N/A   Clear
1:20 PM 59.0 °F - 39.2 °F 48% 30.09 in - Calm Calm - N/A   Clear
1:50 PM 59.0 °F - 39.2 °F 48% 30.09 in - Variable 2.3 mph - N/A   Clear
2:20 PM 57.2 °F - 39.2 °F 51% 30.09 in - Variable 2.3 mph - N/A   Clear
2:50 PM 57.2 °F - 41.0 °F 55% 30.09 in - West 4.6 mph - N/A   Clear
3:20 PM 55.4 °F - 41.0 °F 58% 30.09 in - WNW 3.5 mph - N/A   Clear
3:50 PM 53.6 °F - 41.0 °F 62% 30.09 in - WNW 3.5 mph - N/A   Clear
4:00 PM 54 °F - 40 °F 48% 30.12 in 11 mi WNW 2.2 mph - -  
4:20 PM 51.8 °F - 41.0 °F 67% 30.09 in - NW 2.3 mph - N/A   Clear
4:50 PM 51.8 °F - 41.0 °F 67% 30.09 in - Variable 1.2 mph - N/A   Clear
5:20 PM 46.4 °F - 39.2 °F 76% 30.12 in - Calm Calm - N/A   Clear
5:50 PM 42.8 °F 41.1 °F 37.4 °F 81% 30.12 in - South 3.5 mph - N/A   Clear
6:20 PM 39.2 °F 34.2 °F 35.6 °F 87% 30.12 in 4.3 mi SSE 6.9 mph - N/A   Unknown
6:50 PM 41.0 °F 38.0 °F 37.4 °F 87% 30.12 in 3.7 mi SSE 4.6 mph - N/A   Unknown
7:20 PM 41.0 °F 38.0 °F 39.2 °F 93% 30.12 in 3.7 mi South 4.6 mph - N/A   Scattered Clouds
7:50 PM 41.0 °F 39.0 °F 39.2 °F 93% 30.12 in 3.1 mi SE 3.5 mph - N/A   Mist
8:20 PM 41.0 °F - 39.2 °F 93% 30.15 in 3.1 mi SSE 2.3 mph - N/A   Mist
8:50 PM 41.0 °F 39.0 °F 39.2 °F 93% 30.15 in 2.5 mi SSE 3.5 mph - N/A   Mostly Cloudy
9:20 PM 41.0 °F 39.0 °F 39.2 °F 93% 30.15 in 2.8 mi SSE 3.5 mph - N/A   Scattered Clouds
9:50 PM 42.8 °F - 39.2 °F 87% 30.15 in 3.7 mi South 2.3 mph - N/A   Mostly Cloudy
10:00 PM 42 °F - 39 °F 87% 30.17 in 3 mi South 2.2 mph - -   Overcast
10:20 PM 42.8 °F - 39.2 °F 87% 30.15 in 3.7 mi SSE 2.3 mph - N/A   Mostly Cloudy
10:50 PM 42.8 °F 41.1 °F 41.0 °F 93% 30.15 in 5.6 mi South 3.5 mph - N/A   Mostly Cloudy
11:20 PM 42.8 °F 40.1 °F 41.0 °F 93% 30.15 in 6.2 mi SSE 4.6 mph - N/A   Mostly Cloudy
11:50 PM 44.6 °F 42.2 °F 41.0 °F 87% 30.15 in 6.2 mi South 4.6 mph - N/A   Mostly Cloudy